Theta_e
312 312 312 311 310 307 304 301 297 309 306 296 293 294 295 298 297 299 298 295 293 291 291 289 289 290 292 296 296 289 288 284 280 285 292 294 291 288 285 279 279 281 280 281
311 311 311 311 310 307 299 298 298 309 303 292 292 293 295 297 296 295 295 294 295 294 290 285 292 293 296 297 295 291 290 284 279 278 285 290 288 290 289 285 283 281 279 281
312 311 311 310 309 307 303 302 296 297 296 294 293 291 291 292 298 296 296 295 295 292 289 290 289 292 296 297 297 305 297 286 281 277 278 286 285 288 289 285 279 280 283 284
312 311 311 310 309 307 301 297 294 295 291 293 293 291 293 292 293 297 295 292 294 291 286 287 288 291 292 297 307 296 293 286 287 288 289 290 289 288 288 286 284 282 281 286
312 311 311 310 309 306 299 295 295 296 293 295 293 292 290 293 294 294 293 291 295 291 288 290 288 290 288 289 293 292 289 285 287 285 290 290 288 289 288 287 288 288 287 286
312 312 311 310 309 305 290 290 297 297 293 294 292 292 295 296 296 295 297 296 292 290 292 294 293 293 292 291 292 290 288 286 283 281 287 288 284 287 287 286 288 287 283 286
312 312 311 311 310 309 302 293 294 292 287 293 294 297 297 296 296 292 295 294 291 294 297 296 294 293 292 291 291 292 287 285 283 281 284 278 287 290 291 289 288 289 289 289
312 312 312 311 311 310 305 297 293 293 289 291 293 294 295 295 292 291 293 294 295 297 295 290 287 287 289 293 291 289 290 287 282 281 280 284 289 292 290 287 288 291 290 291
312 312 312 312 311 310 306 302 293 296 292 290 296 294 293 291 290 292 294 298 295 296 292 289 283 283 286 287 291 293 292 291 287 281 280 276 286 295 296 292 284 292 292 292
312 312 312 312 312 312 308 301 294 294 291 294 293 290 291 294 289 289 290 294 294 293 288 286 284 285 291 286 286 286 286 285 284 282 282 285 292 296 296 284 286 291 293 293
312 312 312 312 312 312 308 300 297 291 287 292 298 299 295 292 290 287 291 292 293 290 288 287 287 286 289 287 289 289 286 284 283 283 281 280 296 295 289 292 292 293 294 294
311 311 312 312 312 312 310 298 299 299 291 288 295 300 302 299 298 292 290 292 291 294 290 289 288 287 287 286 284 291 286 289 285 286 285 292 297 296 298 295 294 296 295 296
310 311 312 312 313 312 309 303 299 295 292 294 295 297 300 300 298 299 293 292 296 295 296 292 290 288 289 285 286 289 292 293 290 289 293 293 297 300 298 298 297 299 299 298
310 310 312 312 312 311 310 299 296 294 293 292 295 304 303 308 302 299 298 299 301 299 296 292 291 290 293 289 290 289 292 294 291 290 294 297 298 299 301 302 301 301 301 299
309 310 312 311 311 310 306 306 300 298 297 294 295 300 300 306 305 302 302 302 300 298 296 295 293 296 295 294 293 288 292 290 289 289 295 297 297 301 303 302 302 302 301 299
309 310 311 310 310 309 299 299 302 303 299 298 292 298 299 303 305 305 303 304 301 299 297 295 295 299 296 292 287 289 292 295 296 293 297 297 299 303 305 303 305 305 302 301
309 309 309 310 309 300 299 302 304 304 303 296 291 293 299 303 302 301 301 301 300 298 295 290 294 291 291 285 283 289 294 296 298 298 297 293 298 298 301 302 305 306 304 302
308 308 309 309 307 305 302 303 307 304 299 297 291 294 296 302 297 296 299 296 295 298 295 292 290 291 290 284 289 293 295 296 297 298 299 297 298 299 299 301 302 301 300 300
308 308 309 305 303 299 300 311 310 302 297 292 294 290 289 300 297 296 297 296 292 297 289 289 290 287 282 288 291 293 295 294 294 298 298 299 297 296 296 298 299 300 300 300
307 303 299 298 301 309 308 304 302 302 301 297 293 295 293 297 293 292 294 297 295 287 289 293 286 284 292 293 295 295 294 295 296 293 292 294 295 296 296 296 298 299 302 301
298 295 294 300 307 303 302 299 299 299 294 296 296 296 293 298 292 291 296 293 294 285 287 287 284 281 291 294 293 294 295 296 296 296 296 296 296 295 296 297 299 300 303 302
298 299 303 303 299 301 297 294 296 294 292 295 294 294 295 295 296 293 293 291 289 282 288 283 273 284 289 291 292 293 296 296 296 296 296 296 296 297 298 298 299 301 303 304
304 301 299 299 297 290 293 290 291 290 294 295 294 292 294 295 294 292 289 285 285 290 284 281 281 287 291 290 292 293 295 296 295 295 296 298 297 299 299 299 300 301 303 304
296 296 286 291 290 294 294 293 293 296 296 294 292 292 291 290 289 286 284 286 285 277 273 275 283 290 289 291 293 292 293 294 293 293 295 296 297 298 300 301 302 301 301 304
295 297 285 292 295 296 297 297 297 297 296 294 292 292 290 287 286 284 282 280 277 275 274 282 289 287 289 291 291 292 293 293 292 294 296 297 298 299 301 303 303 302 303 305
298 296 294 294 294 294 296 296 295 297 295 294 292 288 287 285 284 283 280 277 273 278 285 290 286 290 291 290 292 293 294 293 293 295 297 299 301 301 303 304 303 303 304 304
300 296 297 293 294 294 294 296 297 297 295 291 289 286 285 286 284 283 282 278 282 285 286 285 289 291 290 291 293 293 293 293 293 294 297 296 297 297 298 298 301 305 304 302
Wind_Speed
28 29 30 29 30 33 6 2 2 3 2 4 1 3 6 4 4 3 2 4 3 5 4 2 2 3 3 4 7 4 2 5 1 3 2 2 1 3 4 6 2 1 3 8
28 29 31 31 30 26 3 2 3 3 4 2 2 4 1 3 3 3 4 4 4 3 5 2 3 3 1 7 6 8 6 1 3 7 6 3 2 2 4 5 3 4 5 7
27 29 30 33 31 27 2 3 4 6 5 1 3 1 2 2 0 4 4 4 4 3 3 1 5 5 3 1 4 8 8 3 7 7 6 4 3 4 3 6 4 4 7 7
25 27 30 33 35 30 1 5 1 2 4 4 4 2 1 3 4 1 4 1 5 7 5 1 3 2 1 1 8 4 6 5 6 6 6 4 5 6 8 7 5 6 5 7
25 25 27 31 32 30 6 3 4 5 3 4 5 2 1 3 3 7 5 5 7 6 8 9 9 7 4 6 3 5 1 3 5 3 5 6 5 6 5 4 4 7 6 12
24 24 23 27 28 15 4 3 1 4 4 4 2 3 2 4 4 6 6 9 7 5 10 9 7 7 3 4 10 7 6 6 4 5 1 2 6 9 10 6 5 7 7 11
24 23 22 23 19 13 0 3 1 3 5 1 3 3 3 7 5 6 2 6 8 6 6 6 5 4 2 4 7 5 7 6 3 3 2 3 9 3 5 9 6 9 6 6
24 23 21 19 18 13 2 2 1 2 3 3 8 4 3 8 6 0 2 2 2 7 6 5 4 5 5 4 4 6 5 6 3 5 5 5 5 5 8 9 11 11 12 8
24 24 22 19 17 17 0 2 2 1 2 5 3 3 2 2 4 7 2 4 2 7 4 3 6 6 6 4 3 7 6 4 5 3 4 8 9 3 7 5 8 7 9 10
24 24 23 20 18 15 6 3 3 2 1 5 3 4 3 1 1 2 4 5 2 4 3 2 4 5 4 4 5 5 3 2 8 4 5 8 8 5 5 6 10 4 8 8
25 25 23 21 18 14 4 4 4 3 2 7 4 3 2 1 2 3 4 5 3 3 2 4 4 4 5 2 4 6 8 7 5 2 3 8 6 6 9 9 3 3 5 7
24 25 24 22 19 13 4 3 1 1 2 6 3 8 8 9 8 6 3 5 3 5 5 2 3 3 1 4 4 1 2 9 7 10 9 4 11 7 13 5 5 5 5 8
25 26 24 23 18 13 4 3 2 2 1 5 4 4 4 2 7 7 5 3 5 3 3 5 2 4 4 5 7 4 3 2 4 3 5 7 9 12 5 7 8 7 7 8
28 27 24 23 18 12 5 3 2 2 2 1 7 3 6 8 2 5 3 2 3 4 2 2 3 3 4 4 3 3 3 5 5 5 4 9 2 4 7 11 9 6 7 8
30 29 27 23 19 11 3 4 3 2 2 2 5 8 2 5 7 3 4 7 4 2 2 2 0 1 4 2 4 5 7 6 4 4 14 8 13 17 20 15 12 10 8 7
32 30 30 26 16 5 3 2 2 4 3 2 4 4 4 4 5 6 5 4 3 2 2 4 4 7 5 3 4 4 9 10 6 5 13 15 17 18 18 18 21 13 12 13
33 30 30 24 4 4 2 3 3 6 2 2 5 6 4 4 3 3 3 4 3 4 4 6 5 7 5 2 3 10 15 15 13 6 9 10 14 14 16 17 16 11 10 12
33 30 26 12 5 2 2 1 5 3 2 2 1 5 6 5 4 4 4 4 4 8 4 2 3 2 1 2 7 13 12 13 13 11 6 8 11 15 12 13 14 5 6 8
33 28 9 3 2 2 3 14 12 2 3 2 2 1 5 4 2 2 4 2 6 3 3 2 1 2 1 6 9 13 14 12 16 15 13 11 13 14 13 13 16 12 10 6
26 6 5 2 1 13 10 2 2 3 3 3 2 1 4 2 3 2 2 3 3 3 2 1 1 3 4 5 7 10 14 14 15 17 15 16 15 13 15 14 13 13 11 11
6 6 4 6 13 2 1 1 1 0 1 1 3 4 2 2 1 1 2 2 3 3 1 2 1 3 2 7 11 11 11 13 14 14 14 14 14 14 14 15 14 14 13 11
5 7 6 4 4 2 1 1 1 1 2 2 1 2 4 2 1 3 4 3 3 2 2 1 3 3 5 10 13 14 14 15 14 14 16 16 15 13 12 12 11 12 14 13
2 2 3 1 3 5 2 1 3 2 2 2 3 4 1 3 4 4 4 4 3 2 2 2 4 4 7 10 12 14 15 16 20 15 16 15 16 15 12 11 10 10 10 8
1 2 6 2 3 2 3 4 3 4 1 3 1 2 3 2 5 2 4 1 2 3 4 4 3 8 10 11 13 15 18 17 17 17 16 16 15 14 13 10 9 8 7 6
2 2 3 4 3 2 2 1 0 2 2 3 2 3 3 4 5 3 3 5 3 3 4 4 4 7 9 13 15 15 16 15 15 16 14 15 14 12 9 6 5 4 6 5
2 3 3 3 2 3 2 1 1 1 2 2 4 3 4 3 2 3 2 3 3 5 3 2 4 8 10 12 13 14 14 16 15 15 14 13 13 13 9 5 3 3 3 4
3 4 3 2 3 4 2 2 1 1 3 2 3 4 1 1 3 1 3 5 4 3 2 2 3 7 10 10 12 14 15 15 15 16 14 15 14 15 17 16 13 9 12 14
Wind_Direction
352 351 351 352 352 345 53 66 24 334 74 61 21 164 196 185 158 98 110 116 137 186 176 159 134 148 176 170 153 147 136 140 240 194 310 15 119 143 118 114 244 178 151 273
353 353 352 352 355 358 339 44 263 347 67 148 262 265 204 158 127 159 155 164 165 191 187 141 154 171 178 162 154 169 184 21 7 353 3 360 167 201 124 102 79 209 155 264
351 353 355 352 353 356 360 46 2 331 46 23 106 16 212 189 137 163 147 163 120 122 195 235 181 186 225 213 171 129 102 135 161 199 211 169 192 208 166 134 137 195 227 278
352 353 358 357 349 351 29 24 349 182 321 336 355 318 267 176 216 205 147 171 192 167 182 192 224 196 221 82 149 92 127 196 175 238 241 206 219 206 187 187 195 172 230 226
353 354 359 1 357 343 69 53 21 353 296 302 315 359 29 239 243 159 238 191 205 178 166 183 207 174 186 204 183 152 19 207 163 265 253 229 247 246 217 216 212 255 264 284
350 353 357 5 6 4 34 326 337 102 290 336 14 251 359 296 339 246 204 193 135 175 223 200 208 186 178 185 167 182 154 138 117 254 329 97 298 222 193 206 205 168 195 227
346 349 352 1 8 26 181 263 63 75 281 294 244 302 311 278 265 231 195 133 138 224 101 93 72 66 283 204 230 156 146 128 132 200 81 255 238 207 201 202 227 215 254 217
342 344 347 351 360 1 326 265 152 143 272 233 297 289 274 316 315 299 272 212 196 134 65 64 28 333 353 263 209 199 157 129 148 161 193 293 284 210 180 173 261 209 221 236
339 339 342 345 346 353 226 267 205 129 119 256 274 332 338 311 327 342 354 15 128 65 88 103 173 208 223 279 200 39 91 88 141 144 181 221 235 244 139 110 286 222 192 226
335 334 334 339 340 341 340 273 185 113 195 271 166 218 208 146 114 237 312 338 356 46 97 134 172 234 207 208 220 187 107 103 202 167 226 277 234 166 152 130 240 208 188 210
330 330 329 333 336 335 348 276 203 139 202 276 219 265 257 28 112 125 272 15 323 56 114 154 216 196 228 201 217 185 175 157 204 137 210 282 152 91 170 214 202 208 210 194
327 326 326 329 333 328 335 278 317 100 176 249 284 250 238 194 204 156 220 205 191 210 105 207 117 219 195 183 238 71 229 187 195 172 212 228 199 202 218 172 182 214 205 209
324 324 324 325 327 323 283 256 246 78 1 305 354 303 305 262 204 176 156 261 212 208 185 156 169 206 133 191 232 220 250 125 201 89 251 233 221 237 259 207 223 228 222 199
324 322 322 324 325 315 262 197 183 116 138 97 280 349 325 307 245 176 222 141 69 96 77 114 153 191 165 220 225 123 343 336 335 268 329 332 261 280 291 293 258 237 216 199
323 320 322 325 323 305 217 215 210 214 127 239 276 311 279 357 28 356 166 149 135 131 102 107 193 50 7 346 85 43 354 1 333 302 324 311 299 302 298 294 263 231 199 216
321 320 321 324 316 158 159 44 207 203 183 93 325 289 304 327 351 33 31 20 37 66 95 30 29 39 9 340 52 345 326 300 311 312 319 307 287 286 289 278 266 254 204 211
317 321 321 328 65 117 135 166 166 157 141 98 326 334 297 331 351 13 27 17 52 66 62 25 24 9 35 59 6 315 326 327 302 311 342 331 339 316 322 328 289 252 215 210
315 320 317 322 170 288 72 137 123 136 117 82 41 280 345 14 331 347 354 26 35 26 85 21 12 10 71 59 294 301 304 318 330 291 298 284 301 312 318 338 339 283 220 207
317 315 321 109 18 36 255 315 323 138 132 143 92 200 278 359 7 13 1 70 73 67 52 48 17 331 50 234 282 312 320 320 310 315 316 298 307 313 337 339 340 337 328 271
316 360 25 339 18 299 302 32 36 42 349 50 194 148 268 62 15 333 347 15 76 87 29 326 88 241 243 269 296 314 320 319 324 323 322 321 302 328 329 329 326 317 316 308
8 2 328 303 310 320 48 163 131 218 313 186 241 180 258 340 71 266 63 84 64 95 136 239 225 269 350 329 317 322 312 311 310 306 306 310 312 311 311 314 320 317 312 318
278 277 299 285 312 343 147 313 325 66 245 247 206 270 197 297 116 91 358 77 61 66 277 71 288 254 310 325 326 317 315 311 313 311 304 300 302 300 298 295 299 311 311 316
262 230 263 349 269 42 120 53 320 324 300 321 352 333 40 1 36 62 65 65 55 134 31 268 238 269 335 330 313 319 321 323 318 314 312 302 299 292 287 289 284 294 309 320
294 342 322 173 304 241 197 185 198 242 189 0 72 58 63 347 48 3 74 318 76 38 11 272 269 346 326 326 329 328 329 330 326 319 309 302 298 296 290 278 266 271 291 304
226 171 252 239 266 262 269 224 324 7 104 73 57 50 75 23 73 37 71 25 358 180 235 247 339 314 323 339 328 330 330 332 326 318 316 312 308 291 291 278 265 271 306 295
225 233 277 263 1 327 352 29 327 2 81 67 49 72 59 42 88 61 85 103 234 255 241 336 310 336 341 334 328 335 336 340 331 332 335 339 3 1 10 3 345 272 290 319
224 253 217 216 250 227 241 176 231 97 75 88 88 61 84 111 70 90 162 191 224 237 312 295 290 341 344 329 341 341 344 349 351 355 9 10 14 15 26 19 14 37 52 47